| time (UTC) | temp F | wind direction | speed knots | gust knots | rain 1hr in | rain 24hr in | rain mn in | humidity % | barometer mb |
| 20260902113243 | 78 | 328 | 2.6 | 7.0 | 0.00 | 0.00 | 0.00 | 74 | 1022.8 |
| 20260902112743 | 78 | 328 | 3.5 | 7.0 | 0.00 | 0.00 | 0.00 | 74 | 1022.8 |
| 20260902112243 | 78 | 328 | 3.5 | 7.0 | 0.00 | 0.00 | 0.00 | 74 | 1022.7 |
| 20260902111742 | 78 | 328 | 3.5 | 5.2 | 0.00 | 0.00 | 0.00 | 74 | 1022.7 |
| 20260902111242 | 78 | 328 | 3.5 | 5.2 | 0.00 | 0.00 | 0.00 | 74 | 1022.7 |
| 20260902110744 | 78 | 328 | 2.6 | 5.2 | 0.00 | 0.00 | 0.00 | 73 | 1022.7 |
| 20260902110242 | 78 | 328 | 3.5 | 5.2 | 0.00 | 0.00 | 0.00 | 73 | 1022.6 |
| 20260902105742 | 78 | 328 | 2.6 | 5.2 | 0.00 | 0.00 | 0.00 | 73 | 1022.6 |
| 20260902105242 | 78 | 328 | 2.6 | 5.2 | 0.00 | 0.00 | 0.00 | 74 | 1022.6 |
| 20260902104744 | 77 | 328 | 2.6 | 4.3 | 0.00 | 0.00 | 0.00 | 74 | 1022.6 |
| 20260902104243 | 77 | 328 | 2.6 | 5.2 | 0.00 | 0.00 | 0.00 | 75 | 1022.7 |
| 20260902103742 | 77 | 328 | 2.6 | 7.0 | 0.00 | 0.00 | 0.00 | 75 | 1022.7 |
| 20260902103242 | 77 | 328 | 3.5 | 7.0 | 0.00 | 0.00 | 0.00 | 75 | 1022.7 |
| 20260902102707 | 77 | 328 | 2.6 | 5.2 | 0.00 | 0.00 | 0.00 | 75 | 1022.7 |
| 20260902102101 | 77 | 328 | 3.5 | 5.2 | 0.00 | 0.00 | 0.00 | 75 | 1022.6 |
| 20260902101558 | 77 | 328 | 3.5 | 5.2 | 0.00 | 0.00 | 0.00 | 75 | 1022.6 |
| 20260902101058 | 77 | 328 | 3.5 | 7.0 | 0.00 | 0.00 | 0.00 | 75 | 1022.6 |
| 20260902100600 | 77 | 328 | 3.5 | 7.0 | 0.00 | 0.00 | 0.00 | 75 | 1022.5 |
| 20260902100059 | 77 | 328 | 2.6 | 5.2 | 0.00 | 0.00 | 0.00 | 75 | 1022.5 |
| 20260902095559 | 77 | 328 | 2.6 | 7.8 | 0.00 | 0.00 | 0.00 | 75 | 1022.6 |
| 20260902095058 | 77 | 328 | 2.6 | 7.8 | 0.00 | 0.00 | 0.00 | 75 | 1022.6 |
| 20260902094558 | 77 | 328 | 2.6 | 5.2 | 0.00 | 0.00 | 0.00 | 75 | 1022.6 |
| 20260902094058 | 77 | 328 | 1.7 | 4.3 | 0.00 | 0.00 | 0.00 | 75 | 1022.6 |
| 20260902093559 | 77 | 328 | 2.6 | 5.2 | 0.00 | 0.00 | 0.00 | 75 | 1022.5 |
| 20260902093103 | 77 | 328 | 1.7 | 5.2 | 0.00 | 0.00 | 0.00 | 75 | 1022.4 |
| 20260902092558 | 77 | 328 | 3.5 | 5.2 | 0.00 | 0.00 | 0.00 | 75 | 1022.4 |
| 20260902092058 | 77 | 328 | 2.6 | 7.0 | 0.00 | 0.00 | 0.00 | 75 | 1022.4 |
| 20260902091600 | 77 | 328 | 3.5 | 7.0 | 0.00 | 0.00 | 0.00 | 75 | 1022.4 |
| 20260902091058 | 77 | 328 | 2.6 | 7.0 | 0.00 | 0.00 | 0.00 | 75 | 1022.4 |
| 20260902090558 | 77 | 328 | 2.6 | 7.0 | 0.00 | 0.00 | 0.00 | 74 | 1022.5 |
| 20260902090058 | 77 | 328 | 3.5 | 7.0 | 0.00 | 0.00 | 0.00 | 75 | 1022.5 |
| 20260902085558 | 77 | 328 | 3.5 | 7.0 | 0.00 | 0.00 | 0.00 | 74 | 1022.5 |
| 20260902085059 | 77 | 328 | 2.6 | 5.2 | 0.00 | 0.00 | 0.00 | 75 | 1022.5 |
| 20260902084601 | 77 | 328 | 2.6 | 5.2 | 0.00 | 0.00 | 0.00 | 75 | 1022.4 |
| 20260902084058 | 77 | 328 | 1.7 | 7.8 | 0.00 | 0.00 | 0.00 | 75 | 1022.4 |
| 20260902083558 | 77 | 328 | 4.3 | 7.8 | 0.00 | 0.00 | 0.00 | 75 | 1022.3 |
| 20260902083058 | 77 | 328 | 3.5 | 7.8 | 0.00 | 0.00 | 0.00 | 75 | 1022.3 |
| 20260902082558 | 77 | 328 | 4.3 | 7.8 | 0.00 | 0.00 | 0.00 | 75 | 1022.2 |
| 20260902082058 | 77 | 328 | 4.3 | 7.0 | 0.00 | 0.00 | 0.00 | 75 | 1022.3 |
| 20260902081558 | 77 | 328 | 3.5 | 7.0 | 0.00 | 0.00 | 0.00 | 75 | 1022.2 |
| 20260902081058 | 77 | 328 | 2.6 | 5.2 | 0.00 | 0.00 | 0.00 | 74 | 1022.3 |
| 20260902080300 | 77 | 328 | 1.7 | 5.2 | 0.00 | 0.00 | 0.00 | 75 | 1022.2 |
| 20260902080227 | 77 | 328 | 1.7 | 5.2 | 0.00 | 0.00 | 0.00 | 75 | 1022.2 |
| 20260902075725 | 77 | 328 | 2.6 | 7.0 | 0.00 | 0.00 | 0.00 | 75 | 1022.2 |
| 20260902075231 | 77 | 328 | 2.6 | 7.8 | 0.00 | 0.00 | 0.00 | 75 | 1022.3 |
| 20260902074727 | 77 | 328 | 3.5 | 7.8 | 0.00 | 0.00 | 0.00 | 75 | 1022.2 |
| 20260902074226 | 77 | 328 | 3.5 | 5.2 | 0.00 | 0.00 | 0.00 | 75 | 1022.3 |
| 20260902073728 | 77 | 328 | 1.7 | 5.2 | 0.00 | 0.00 | 0.00 | 75 | 1022.3 |
| 20260902073226 | 77 | 328 | 1.7 | 5.2 | 0.00 | 0.00 | 0.00 | 75 | 1022.3 |
| 20260902072725 | 77 | 328 | 2.6 | 5.2 | 0.00 | 0.00 | 0.00 | 75 | 1022.4 |
| 20260902072227 | 77 | 328 | 1.7 | 5.2 | 0.00 | 0.00 | 0.00 | 74 | 1022.4 |
| 20260902071725 | 77 | 328 | 2.6 | 7.0 | 0.00 | 0.00 | 0.00 | 74 | 1022.5 |
| 20260902071225 | 77 | 328 | 2.6 | 7.0 | 0.00 | 0.00 | 0.00 | 74 | 1022.5 |
| 20260902070725 | 77 | 328 | 1.7 | 5.2 | 0.00 | 0.00 | 0.00 | 74 | 1022.5 |
| 20260902070435 | 77 | 328 | 0.9 | 4.3 | 0.00 | 0.00 | 0.00 | 73 | 1022.5 |
| 20260902070225 | 77 | 328 | 0.9 | 4.3 | 0.00 | 0.00 | 0.00 | 73 | 1022.5 |
| 20260902065725 | 77 | 328 | 0.9 | 4.3 | 0.00 | 0.00 | 0.00 | 73 | 1022.5 |
| 20260902065226 | 78 | 328 | 0.9 | 7.8 | 0.00 | 0.00 | 0.00 | 73 | 1022.5 |
| 20260902064726 | 78 | 328 | 1.7 | 7.8 | 0.00 | 0.00 | 0.00 | 73 | 1022.4 |
| 20260902064226 | 78 | 328 | 1.7 | 5.2 | 0.00 | 0.00 | 0.00 | 72 | 1022.5 |
| 20260902063728 | 78 | 328 | 0.9 | 7.0 | 0.00 | 0.00 | 0.00 | 72 | 1022.4 |
| 20260902063231 | 78 | 328 | 1.7 | 7.0 | 0.00 | 0.00 | 0.00 | 72 | 1022.5 |
| 20260902062725 | 78 | 328 | 1.7 | 3.5 | 0.00 | 0.00 | 0.00 | 72 | 1022.5 |
| 20260902062226 | 78 | 0 | 0.0 | 4.3 | 0.00 | 0.00 | 0.00 | 71 | 1022.5 |
| 20260902061727 | 78 | 328 | 0.9 | 4.3 | 0.00 | 0.00 | 0.00 | 72 | 1022.5 |
| 20260902061227 | 78 | 0 | 0.0 | 3.5 | 0.00 | 0.00 | 0.00 | 72 | 1022.4 |
| 20260902060725 | 78 | 0 | 0.0 | 3.5 | 0.00 | 0.00 | 0.00 | 72 | 1022.5 |
| 20260902060229 | 78 | 0 | 0.0 | 3.5 | 0.00 | 0.00 | 0.00 | 72 | 1022.4 |
| 20260902055729 | 78 | 0 | 0.0 | 4.3 | 0.00 | 0.00 | 0.00 | 72 | 1022.3 |
| 20260902055230 | 78 | 328 | 1.7 | 4.3 | 0.00 | 0.00 | 0.00 | 72 | 1022.2 |
| 20260902054726 | 78 | 328 | 0.9 | 7.0 | 0.00 | 0.00 | 0.00 | 71 | 1022.2 |
| 20260902054226 | 78 | 328 | 2.6 | 7.0 | 0.00 | 0.00 | 0.00 | 71 | 1022.2 |
| 20260902053727 | 78 | 328 | 0.9 | 4.3 | 0.00 | 0.00 | 0.00 | 70 | 1022.2 |
| 20260902053227 | 78 | 328 | 0.9 | 2.6 | 0.00 | 0.00 | 0.00 | 70 | 1022.2 |
| 20260902052726 | 79 | 328 | 0.9 | 3.5 | 0.00 | 0.00 | 0.00 | 70 | 1022.2 |
| 20260902052225 | 79 | 0 | 0.0 | 3.5 | 0.00 | 0.00 | 0.00 | 70 | 1022.2 |
| 20260902051727 | 79 | 0 | 0.0 | 4.3 | 0.00 | 0.00 | 0.00 | 70 | 1022.1 |
| 20260902051230 | 79 | 328 | 0.9 | 4.3 | 0.00 | 0.00 | 0.00 | 70 | 1022.1 |
| 20260902050725 | 79 | 328 | 0.9 | 5.2 | 0.00 | 0.00 | 0.00 | 71 | 1022.1 |
| 20260902050227 | 78 | 328 | 0.9 | 5.2 | 0.00 | 0.00 | 0.00 | 71 | 1022.1 |
| 20260902045725 | 78 | 328 | 1.7 | 4.3 | 0.00 | 0.00 | 0.00 | 71 | 1021.9 |
| 20260902045308 | 78 | 328 | 0.9 | 3.5 | 0.00 | 0.00 | 0.00 | 71 | 1021.9 |
| 20260902045227 | 78 | 328 | 0.9 | 3.5 | 0.00 | 0.00 | 0.00 | 71 | 1021.9 |
| 20260902044255 | 79 | 328 | 0.9 | 4.3 | 0.00 | 0.00 | 0.00 | 70 | 1022.1 |
| 20260902043757 | 79 | 0 | 0.0 | 4.3 | 0.00 | 0.00 | 0.00 | 70 | 1022.1 |
| 20260902043254 | 79 | 328 | 0.9 | 4.3 | 0.00 | 0.00 | 0.00 | 70 | 1022.1 |
| 20260902042755 | 79 | 328 | 1.7 | 5.2 | 0.00 | 0.00 | 0.00 | 69 | 1022.1 |
| 20260902042259 | 79 | 328 | 0.9 | 7.0 | 0.00 | 0.00 | 0.00 | 69 | 1022.1 |
| 20260902041754 | 79 | 328 | 1.7 | 7.0 | 0.00 | 0.00 | 0.00 | 69 | 1022.1 |
| 20260902041256 | 80 | 328 | 1.7 | 5.2 | 0.00 | 0.00 | 0.00 | 68 | 1022.1 |
| 20260902040754 | 80 | 328 | 0.9 | 4.3 | 0.00 | 0.00 | 0.00 | 68 | 1022.2 |
| 20260902040254 | 80 | 328 | 0.9 | 4.3 | 0.00 | 0.00 | 0.00 | 67 | 1022.3 |
| 20260902035754 | 80 | 328 | 0.9 | 5.2 | 0.00 | 0.00 | 0.00 | 68 | 1022.2 |
| 20260902035258 | 80 | 328 | 2.6 | 5.2 | 0.00 | 0.00 | 0.00 | 68 | 1022.2 |
| 20260902034754 | 79 | 328 | 2.6 | 5.2 | 0.00 | 0.00 | 0.00 | 68 | 1022.2 |
| 20260902034258 | 80 | 328 | 1.7 | 5.2 | 0.00 | 0.00 | 0.00 | 69 | 1022.1 |
| 20260902033754 | 80 | 328 | 0.9 | 4.3 | 0.00 | 0.00 | 0.00 | 69 | 1022.1 |
| 20260902032603 | 80 | 328 | 1.7 | 5.2 | 0.00 | 0.00 | 0.00 | 69 | 1022.0 |
| 20260902032103 | 80 | 328 | 2.6 | 5.2 | 0.00 | 0.00 | 0.00 | 69 | 1022.0 |
| 20260902031603 | 80 | 328 | 1.7 | 5.2 | 0.00 | 0.00 | 0.00 | 69 | 1022.0 |
| 20260902031107 | 80 | 328 | 0.9 | 3.5 | 0.00 | 0.00 | 0.00 | 69 | 1022.0 |
| 20260902030603 | 80 | 0 | 0.0 | 4.3 | 0.00 | 0.00 | 0.00 | 69 | 1022.0 |
| 20260902030103 | 80 | 328 | 0.9 | 4.3 | 0.00 | 0.00 | 0.00 | 70 | 1022.0 |
| 20260902025603 | 80 | 328 | 0.9 | 4.3 | 0.00 | 0.00 | 0.00 | 70 | 1022.1 |
| 20260902025104 | 80 | 328 | 0.9 | 3.5 | 0.00 | 0.00 | 0.00 | 69 | 1022.0 |
| 20260902024603 | 80 | 328 | 0.9 | 2.6 | 0.00 | 0.00 | 0.00 | 69 | 1022.1 |
| 20260902024103 | 80 | 0 | 0.0 | 4.3 | 0.00 | 0.00 | 0.00 | 69 | 1022.2 |
| 20260902023603 | 80 | 328 | 0.9 | 4.3 | 0.00 | 0.00 | 0.00 | 69 | 1022.2 |
| 20260902022604 | 80 | 0 | 0.0 | 5.2 | 0.00 | 0.00 | 0.00 | 69 | 1022.3 |
| 20260902022104 | 80 | 328 | 0.9 | 5.2 | 0.00 | 0.00 | 0.00 | 68 | 1022.2 |
| 20260902021604 | 80 | 0 | 0.0 | 2.6 | 0.00 | 0.00 | 0.00 | 69 | 1022.1 |
| 20260902021114 | 81 | 0 | 0.0 | 3.5 | 0.00 | 0.00 | 0.00 | 69 | 1022.1 |
| 20260902020604 | 81 | 328 | 0.9 | 5.2 | 0.00 | 0.00 | 0.00 | 68 | 1022.1 |
| 20260902020104 | 81 | 328 | 0.9 | 13.9 | 0.00 | 0.00 | 0.00 | 68 | 1022.0 |
| 20260902015604 | 81 | 0 | 0.0 | 13.9 | 0.00 | 0.00 | 0.00 | 68 | 1022.0 |
| 20260902015112 | 81 | 328 | 0.9 | 7.8 | 0.00 | 0.00 | 0.00 | 68 | 1021.9 |
| 20260902014604 | 81 | 0 | 0.0 | 2.6 | 0.00 | 0.00 | 0.00 | 68 | 1021.8 |
| 20260902014105 | 81 | 0 | 0.0 | 2.6 | 0.00 | 0.00 | 0.00 | 67 | 1021.8 |
| 20260902013604 | 81 | 0 | 0.0 | 1.7 | 0.00 | 0.00 | 0.00 | 67 | 1021.6 |
| 20260902013104 | 82 | 0 | 0.0 | 2.6 | 0.00 | 0.00 | 0.00 | 66 | 1021.6 |
| 20260902012604 | 82 | 0 | 0.0 | 2.6 | 0.00 | 0.00 | 0.00 | 66 | 1021.6 |
| 20260902012104 | 82 | 0 | 0.0 | 1.7 | 0.00 | 0.00 | 0.00 | 66 | 1021.5 |
| 20260902011604 | 82 | 0 | 0.0 | 0.9 | 0.00 | 0.00 | 0.00 | 65 | 1021.5 |
| 20260902011052 | 82 | 0 | 0.0 | 1.7 | 0.00 | 0.00 | 0.00 | 65 | 1021.4 |
| 20260902005604 | 82 | 0 | 0.0 | 0.0 | 0.00 | 0.00 | 0.00 | 65 | 1021.4 |
| 20260902005104 | 82 | 0 | 0.0 | 0.0 | 0.00 | 0.00 | 0.00 | 65 | 1021.3 |
| 20260902004602 | 83 | 0 | 0.0 | 0.0 | 0.00 | 0.00 | 0.00 | 65 | 1021.3 |
| 20260902004102 | 82 | 0 | 0.0 | 0.0 | 0.00 | 0.00 | 0.00 | 65 | 1021.3 |
| 20260902003602 | 82 | 0 | 0.0 | 0.0 | 0.00 | 0.00 | 0.00 | 65 | 1021.3 |
| 20260902003102 | 82 | 0 | 0.0 | 0.0 | 0.00 | 0.00 | 0.00 | 65 | 1021.3 |
| 20260902002602 | 82 | 0 | 0.0 | 0.0 | 0.00 | 0.00 | 0.00 | 66 | 1021.3 |
| 20260902002103 | 82 | 0 | 0.0 | 0.0 | 0.00 | 0.00 | 0.00 | 67 | 1021.2 |
| 20260902001602 | 82 | 0 | 0.0 | 0.0 | 0.00 | 0.00 | 0.00 | 67 | 1021.3 |
| 20260902000650 | 82 | 0 | 0.0 | 0.9 | 0.00 | 0.00 | 0.00 | 67 | 1021.3 |
| 20260902000150 | 82 | 0 | 0.0 | 0.9 | 0.00 | 0.00 | 0.00 | 67 | 1021.3 |
| 20260901235650 | 83 | 0 | 0.0 | 0.0 | 0.00 | 0.00 | 0.00 | 67 | 1021.2 |
| 20260901235150 | 83 | 0 | 0.0 | 0.0 | 0.00 | 0.00 | 0.00 | 66 | 1021.2 |
| 20260901234650 | 83 | 0 | 0.0 | 0.0 | 0.00 | 0.00 | 0.00 | 66 | 1021.3 |
| 20260901234150 | 83 | 0 | 0.0 | 0.0 | 0.00 | 0.00 | 0.00 | 66 | 1021.3 |
| 20260901233650 | 83 | 0 | 0.0 | 0.0 | 0.00 | 0.00 | 0.00 | 66 | 1021.4 |
| 20260901233151 | 83 | 0 | 0.0 | 0.0 | 0.00 | 0.00 | 0.00 | 67 | 1021.4 |
| 20260901232650 | 83 | 0 | 0.0 | 0.0 | 0.00 | 0.00 | 0.00 | 67 | 1021.4 |
| 20260901232150 | 83 | 0 | 0.0 | 0.0 | 0.00 | 0.00 | 0.00 | 67 | 1021.5 |
| 20260901231650 | 83 | 0 | 0.0 | 0.0 | 0.00 | 0.00 | 0.00 | 68 | 1021.5 |
| 20260901231150 | 83 | 0 | 0.0 | 0.9 | 0.00 | 0.00 | 0.00 | 69 | 1021.6 |
| 20260901230650 | 83 | 0 | 0.0 | 0.9 | 0.00 | 0.00 | 0.00 | 68 | 1021.6 |
| 20260901230150 | 84 | 0 | 0.0 | 1.7 | 0.00 | 0.00 | 0.00 | 66 | 1021.6 |
| 20260901225650 | 84 | 0 | 0.0 | 1.7 | 0.00 | 0.00 | 0.00 | 66 | 1021.7 |
| 20260901225107 | 85 | 0 | 0.0 | 0.0 | 0.00 | 0.00 | 0.00 | 66 | 1021.7 |
| 20260901224553 | 85 | 0 | 0.0 | 2.6 | 0.00 | 0.00 | 0.00 | 64 | 1021.7 |
| 20260901223755 | 85 | 0 | 0.0 | 2.6 | 0.00 | 0.00 | 0.00 | 64 | 1021.8 |
| 20260901223253 | 85 | 0 | 0.0 | 3.5 | 0.00 | 0.00 | 0.00 | 64 | 1021.7 |
| 20260901222753 | 85 | 0 | 0.0 | 3.5 | 0.00 | 0.00 | 0.00 | 63 | 1021.7 |
| 20260901222258 | 85 | 0 | 0.0 | 1.7 | 0.00 | 0.00 | 0.00 | 63 | 1021.7 |
| 20260901221753 | 85 | 0 | 0.0 | 2.6 | 0.00 | 0.00 | 0.00 | 63 | 1021.5 |
| 20260901221253 | 86 | 0 | 0.0 | 7.8 | 0.00 | 0.00 | 0.00 | 61 | 1021.7 |
| 20260901220753 | 86 | 328 | 0.9 | 7.8 | 0.00 | 0.00 | 0.00 | 60 | 1021.7 |
| 20260901220253 | 86 | 328 | 0.9 | 2.6 | 0.00 | 0.00 | 0.00 | 60 | 1021.7 |
| 20260901215753 | 86 | 0 | 0.0 | 4.3 | 0.00 | 0.00 | 0.00 | 60 | 1021.7 |
| 20260901215256 | 86 | 328 | 0.9 | 4.3 | 0.00 | 0.00 | 0.00 | 60 | 1021.7 |
| 20260901214753 | 87 | 0 | 0.0 | 5.2 | 0.00 | 0.00 | 0.00 | 60 | 1021.7 |
| 20260901214253 | 87 | 328 | 0.9 | 5.2 | 0.00 | 0.00 | 0.00 | 59 | 1021.7 |
| 20260901213755 | 87 | 328 | 0.9 | 3.5 | 0.00 | 0.00 | 0.00 | 59 | 1021.6 |
| 20260901213255 | 87 | 328 | 0.9 | 3.5 | 0.00 | 0.00 | 0.00 | 59 | 1021.6 |
| 20260901212753 | 87 | 0 | 0.0 | 4.3 | 0.00 | 0.00 | 0.00 | 59 | 1021.6 |
| 20260901212253 | 87 | 328 | 0.9 | 4.3 | 0.00 | 0.00 | 0.00 | 58 | 1021.5 |
| 20260901211753 | 87 | 328 | 0.9 | 4.3 | 0.00 | 0.00 | 0.00 | 58 | 1021.6 |
| 20260901211253 | 88 | 328 | 1.7 | 5.2 | 0.00 | 0.00 | 0.00 | 58 | 1021.5 |
| 20260901210753 | 88 | 328 | 1.7 | 8.7 | 0.00 | 0.00 | 0.00 | 59 | 1021.5 |
| 20260901210253 | 88 | 328 | 1.7 | 8.7 | 0.00 | 0.00 | 0.00 | 56 | 1021.6 |
| 20260901205655 | 88 | 0 | 0.0 | 3.5 | 0.00 | 0.00 | 0.00 | 58 | 1021.8 |
| 20260901205155 | 88 | 0 | 0.0 | 3.5 | 0.00 | 0.00 | 0.00 | 59 | 1021.8 |
| 20260901204652 | 87 | 328 | 0.9 | 5.2 | 0.00 | 0.00 | 0.00 | 58 | 1021.9 |
| 20260901204153 | 87 | 328 | 0.9 | 5.2 | 0.00 | 0.00 | 0.00 | 58 | 1021.9 |
| 20260901203653 | 88 | 0 | 0.0 | 5.2 | 0.00 | 0.00 | 0.00 | 57 | 1022.0 |
| 20260901203153 | 88 | 328 | 0.9 | 5.2 | 0.00 | 0.00 | 0.00 | 57 | 1022.1 |
| 20260901202418 | 89 | 328 | 1.7 | 8.7 | 0.00 | 0.00 | 0.00 | 57 | 1022.1 |
| 20260901201918 | 89 | 328 | 0.9 | 8.7 | 0.00 | 0.00 | 0.00 | 57 | 1022.0 |
| 20260901201422 | 89 | 0 | 0.0 | 4.3 | 0.00 | 0.00 | 0.00 | 56 | 1022.0 |
| 20260901200918 | 89 | 0 | 0.0 | 5.2 | 0.00 | 0.00 | 0.00 | 57 | 1022.0 |
| 20260901200422 | 89 | 329 | 0.9 | 5.2 | 0.00 | 0.00 | 0.00 | 56 | 1022.0 |
| 20260901195918 | 89 | 0 | 0.0 | 3.5 | 0.00 | 0.00 | 0.00 | 57 | 1022.1 |
| 20260901195418 | 89 | 0 | 0.0 | 4.3 | 0.00 | 0.00 | 0.00 | 55 | 1022.2 |
| 20260901194918 | 90 | 329 | 0.9 | 4.3 | 0.00 | 0.00 | 0.00 | 53 | 1022.3 |
| 20260901194420 | 90 | 0 | 0.0 | 3.5 | 0.00 | 0.00 | 0.00 | 56 | 1022.2 |
| 20260901193918 | 89 | 0 | 0.0 | 7.0 | 0.00 | 0.00 | 0.00 | 56 | 1022.2 |
| 20260901193418 | 88 | 0 | 0.0 | 7.0 | 0.00 | 0.00 | 0.00 | 54 | 1022.2 |
| 20260901192919 | 89 | 0 | 0.0 | 7.8 | 0.00 | 0.00 | 0.00 | 55 | 1022.2 |
| 20260901192418 | 89 | 0 | 0.0 | 7.8 | 0.00 | 0.00 | 0.00 | 55 | 1022.4 |
| 20260901191918 | 89 | 0 | 0.0 | 2.6 | 0.00 | 0.00 | 0.00 | 55 | 1022.4 |
| 20260901191418 | 89 | 329 | 0.9 | 5.2 | 0.00 | 0.00 | 0.00 | 54 | 1022.5 |
| 20260901190918 | 88 | 329 | 0.9 | 5.2 | 0.00 | 0.00 | 0.00 | 56 | 1022.5 |
| 20260901190418 | 88 | 329 | 0.9 | 4.3 | 0.00 | 0.00 | 0.00 | 57 | 1022.7 |
| 20260901185918 | 87 | 329 | 1.7 | 5.2 | 0.00 | 0.00 | 0.00 | 58 | 1022.6 |
| 20260901185418 | 87 | 329 | 1.7 | 7.8 | 0.00 | 0.00 | 0.00 | 55 | 1022.6 |
| 20260901184918 | 88 | 329 | 1.7 | 10.4 | 0.00 | 0.00 | 0.00 | 56 | 1022.7 |
| 20260901184418 | 89 | 324 | 3.5 | 10.4 | 0.00 | 0.00 | 0.00 | 55 | 1022.7 |
| 20260901183918 | 89 | 324 | 0.9 | 5.2 | 0.00 | 0.00 | 0.00 | 56 | 1022.7 |
| 20260901183418 | 88 | 323 | 0.9 | 5.2 | 0.00 | 0.00 | 0.00 | 58 | 1022.7 |
| 20260901182918 | 87 | 0 | 0.0 | 10.4 | 0.00 | 0.00 | 0.00 | 60 | 1022.8 |
| 20260901182418 | 87 | 324 | 2.6 | 10.4 | 0.00 | 0.00 | 0.00 | 58 | 1022.8 |
| 20260901181920 | 87 | 323 | 2.6 | 7.0 | 0.00 | 0.00 | 0.00 | 56 | 1022.8 |
| 20260901181418 | 87 | 323 | 1.7 | 10.4 | 0.00 | 0.00 | 0.00 | 58 | 1022.8 |
| 20260901180923 | 87 | 323 | 1.7 | 10.4 | 0.00 | 0.00 | 0.00 | 60 | 1022.8 |
| 20260901180418 | 87 | 323 | 1.7 | 7.8 | 0.00 | 0.00 | 0.00 | 59 | 1022.9 |
| 20260901175918 | 88 | 321 | 1.7 | 7.0 | 0.00 | 0.00 | 0.00 | 58 | 1022.9 |
| 20260901175418 | 87 | 321 | 0.9 | 5.2 | 0.00 | 0.00 | 0.00 | 59 | 1022.9 |
| 20260901174918 | 87 | 0 | 0.0 | 8.7 | 0.00 | 0.00 | 0.00 | 61 | 1022.9 |
| 20260901174418 | 87 | 322 | 0.9 | 8.7 | 0.00 | 0.00 | 0.00 | 60 | 1023.0 |
| 20260901173918 | 87 | 320 | 0.9 | 7.0 | 0.00 | 0.00 | 0.00 | 60 | 1023.0 |
| 20260901173418 | 86 | 320 | 0.9 | 7.0 | 0.00 | 0.00 | 0.00 | 60 | 1022.9 |
| 20260901172918 | 86 | 0 | 0.0 | 8.7 | 0.00 | 0.00 | 0.00 | 61 | 1023.0 |
| 20260901172418 | 86 | 320 | 1.7 | 8.7 | 0.00 | 0.00 | 0.00 | 60 | 1023.0 |
| 20260901171919 | 86 | 319 | 1.7 | 7.0 | 0.00 | 0.00 | 0.00 | 60 | 1023.1 |
| 20260901171418 | 86 | 319 | 1.7 | 7.0 | 0.00 | 0.00 | 0.00 | 62 | 1023.0 |
| 20260901170918 | 87 | 319 | 0.9 | 5.2 | 0.00 | 0.00 | 0.00 | 61 | 1023.1 |
| 20260901170802 | 85 | 0 | 0.0 | 7.8 | 0.00 | 0.00 | 0.00 | 62 | 1023.4 |
| 20260901170759 | 85 | 316 | 0.9 | 8.7 | 0.00 | 0.00 | 0.00 | 63 | 1023.5 |
| 20260901170756 | 85 | 315 | 0.9 | 8.7 | 0.00 | 0.00 | 0.00 | 61 | 1023.5 |
| 20260901170418 | 86 | 319 | 1.7 | 5.2 | 0.00 | 0.00 | 0.00 | 60 | 1023.1 |
| 20260901165918 | 86 | 319 | 1.7 | 5.2 | 0.00 | 0.00 | 0.00 | 62 | 1023.1 |
| 20260901165418 | 86 | 319 | 0.9 | 5.2 | 0.00 | 0.00 | 0.00 | 62 | 1023.2 |
| 20260901164919 | 86 | 319 | 0.9 | 8.7 | 0.00 | 0.00 | 0.00 | 62 | 1023.3 |
| 20260901164418 | 86 | 318 | 2.6 | 8.7 | 0.00 | 0.00 | 0.00 | 61 | 1023.3 |
| 20260901163918 | 85 | 0 | 0.0 | 7.8 | 0.00 | 0.00 | 0.00 | 62 | 1023.4 |
| 20260901163327 | 85 | 316 | 0.9 | 8.7 | 0.00 | 0.00 | 0.00 | 63 | 1023.5 |
| 20260901162827 | 85 | 315 | 0.9 | 8.7 | 0.00 | 0.00 | 0.00 | 61 | 1023.5 |
| 20260901162505 | 82 | 0 | 0.0 | 7.0 | 0.00 | 0.00 | 0.00 | 71 | 1024.0 |
| 20260901162327 | 86 | 0 | 0.0 | 3.5 | 0.00 | 0.00 | 0.00 | 63 | 1023.5 |
| 20260901161827 | 85 | 0 | 0.0 | 5.2 | 0.00 | 0.00 | 0.00 | 65 | 1023.6 |
| 20260901161327 | 85 | 313 | 1.7 | 5.2 | 0.00 | 0.00 | 0.00 | 63 | 1023.6 |
| 20260901160828 | 85 | 0 | 0.0 | 4.3 | 0.00 | 0.00 | 0.00 | 67 | 1023.7 |
| 20260901160327 | 85 | 313 | 1.7 | 4.3 | 0.00 | 0.00 | 0.00 | 66 | 1023.8 |
| 20260901155827 | 85 | 0 | 0.0 | 4.3 | 0.00 | 0.00 | 0.00 | 67 | 1023.7 |
| 20260901155327 | 85 | 0 | 0.0 | 2.6 | 0.00 | 0.00 | 0.00 | 65 | 1023.7 |
| 20260901154827 | 85 | 0 | 0.0 | 2.6 | 0.00 | 0.00 | 0.00 | 67 | 1023.7 |
| 20260901154327 | 84 | 0 | 0.0 | 2.6 | 0.00 | 0.00 | 0.00 | 69 | 1023.7 |
| 20260901153827 | 83 | 0 | 0.0 | 2.6 | 0.00 | 0.00 | 0.00 | 71 | 1023.8 |
| 20260901153327 | 83 | 0 | 0.0 | 3.5 | 0.00 | 0.00 | 0.00 | 72 | 1024.0 |
| 20260901152827 | 83 | 0 | 0.0 | 3.5 | 0.00 | 0.00 | 0.00 | 70 | 1023.9 |
| 20260901152327 | 83 | 0 | 0.0 | 3.5 | 0.00 | 0.00 | 0.00 | 71 | 1024.0 |
| 20260901151827 | 82 | 0 | 0.0 | 7.0 | 0.00 | 0.00 | 0.00 | 71 | 1024.0 |
| 20260901151327 | 82 | 0 | 0.0 | 7.0 | 0.00 | 0.00 | 0.00 | 70 | 1024.0 |
| 20260901150827 | 82 | 0 | 0.0 | 5.2 | 0.00 | 0.00 | 0.00 | 71 | 1024.0 |
| 20260901150327 | 82 | 313 | 0.9 | 5.2 | 0.00 | 0.00 | 0.00 | 69 | 1024.1 |
| 20260901145827 | 82 | 0 | 0.0 | 7.8 | 0.00 | 0.00 | 0.00 | 70 | 1024.1 |
| 20260901145327 | 82 | 313 | 0.9 | 7.8 | 0.00 | 0.00 | 0.00 | 70 | 1024.1 |
| 20260901144827 | 82 | 0 | 0.0 | 4.3 | 0.00 | 0.00 | 0.00 | 70 | 1024.2 |
| 20260901144330 | 81 | 313 | 0.9 | 4.3 | 0.00 | 0.00 | 0.00 | 70 | 1024.3 |
| 20260901144129 | 81 | 313 | 0.9 | 7.0 | 0.00 | 0.00 | 0.00 | 71 | 1024.3 |
| 20260901143828 | 81 | 313 | 0.9 | 7.0 | 0.00 | 0.00 | 0.00 | 71 | 1024.3 |
| 20260901143621 | 81 | 313 | 0.9 | 7.0 | 0.00 | 0.00 | 0.00 | 69 | 1024.3 |
| 20260901143327 | 81 | 313 | 0.9 | 7.0 | 0.00 | 0.00 | 0.00 | 69 | 1024.3 |
| 20260901142915 | 81 | 313 | 0.9 | 4.3 | 0.00 | 0.00 | 0.00 | 70 | 1024.3 |
| 20260901142827 | 81 | 313 | 0.9 | 4.3 | 0.00 | 0.00 | 0.00 | 70 | 1024.3 |
| 20260901142327 | 81 | 313 | 0.9 | 4.3 | 0.00 | 0.00 | 0.00 | 71 | 1024.3 |
| 20260901141828 | 80 | 0 | 0.0 | 4.3 | 0.00 | 0.00 | 0.00 | 70 | 1024.3 |
| 20260901141327 | 81 | 0 | 0.0 | 3.5 | 0.00 | 0.00 | 0.00 | 70 | 1024.2 |
| 20260901140827 | 80 | 0 | 0.0 | 3.5 | 0.00 | 0.00 | 0.00 | 70 | 1024.2 |
| 20260901140327 | 81 | 0 | 0.0 | 3.5 | 0.00 | 0.00 | 0.00 | 68 | 1024.1 |
| 20260901135827 | 81 | 0 | 0.0 | 2.6 | 0.00 | 0.00 | 0.00 | 68 | 1024.1 |
| 20260901135528 | 80 | 0 | 0.0 | 2.6 | 0.00 | 0.00 | 0.00 | 70 | 1024.1 |
| 20260901135228 | 80 | 0 | 0.0 | 2.6 | 0.00 | 0.00 | 0.00 | 70 | 1024.1 |
| 20260901134603 | 80 | 0 | 0.0 | 2.6 | 0.00 | 0.00 | 0.00 | 71 | 1024.1 |
| 20260901134536 | 80 | 0 | 0.0 | 2.6 | 0.00 | 0.00 | 0.00 | 71 | 1024.1 |
| 20260901134103 | 80 | 0 | 0.0 | 2.6 | 0.00 | 0.00 | 0.00 | 71 | 1024.1 |
| 20260901133902 | 79 | 0 | 0.0 | 1.7 | 0.00 | 0.00 | 0.00 | 72 | 1024.0 |
| 20260901133603 | 80 | 0 | 0.0 | 1.7 | 0.00 | 0.00 | 0.00 | 71 | 1024.1 |
| 20260901133103 | 79 | 0 | 0.0 | 1.7 | 0.00 | 0.00 | 0.00 | 71 | 1024.0 |
| 20260901132603 | 79 | 0 | 0.0 | 1.7 | 0.00 | 0.00 | 0.00 | 72 | 1024.0 |
| 20260901132112 | 79 | 0 | 0.0 | 1.7 | 0.00 | 0.00 | 0.00 | 73 | 1024.0 |
| 20260901131605 | 79 | 0 | 0.0 | 2.6 | 0.00 | 0.00 | 0.00 | 74 | 1024.0 |
| 20260901131103 | 79 | 0 | 0.0 | 2.6 | 0.00 | 0.00 | 0.00 | 74 | 1024.1 |
| 20260901130603 | 78 | 0 | 0.0 | 1.7 | 0.00 | 0.00 | 0.00 | 75 | 1024.1 |
| 20260901130148 | 78 | 0 | 0.0 | 0.0 | 0.00 | 0.00 | 0.00 | 75 | 1024.0 |
| 20260901130105 | 78 | 0 | 0.0 | 0.0 | 0.00 | 0.00 | 0.00 | 75 | 1024.0 |
| 20260901125603 | 78 | 0 | 0.0 | 0.0 | 0.00 | 0.00 | 0.00 | 75 | 1024.0 |
| 20260901125103 | 77 | 0 | 0.0 | 0.0 | 0.00 | 0.00 | 0.00 | 75 | 1024.0 |
| 20260901124603 | 77 | 0 | 0.0 | 0.0 | 0.00 | 0.00 | 0.00 | 76 | 1024.0 |
| 20260901124538 | 76 | 0 | 0.0 | 0.0 | 0.00 | 0.00 | 0.00 | 77 | 1024.0 |
| 20260901124110 | 77 | 0 | 0.0 | 0.0 | 0.00 | 0.00 | 0.00 | 76 | 1024.1 |
| 20260901123605 | 77 | 0 | 0.0 | 0.0 | 0.00 | 0.00 | 0.00 | 76 | 1024.0 |
| 20260901123103 | 76 | 0 | 0.0 | 0.0 | 0.00 | 0.00 | 0.00 | 78 | 1024.0 |
| 20260901122603 | 76 | 0 | 0.0 | 0.0 | 0.00 | 0.00 | 0.00 | 77 | 1024.0 |
| 20260901122103 | 76 | 0 | 0.0 | 0.0 | 0.00 | 0.00 | 0.00 | 77 | 1024.0 |
| 20260901121606 | 77 | 0 | 0.0 | 2.6 | 0.00 | 0.00 | 0.00 | 76 | 1023.9 |
| 20260901121111 | 77 | 0 | 0.0 | 2.6 | 0.00 | 0.00 | 0.00 | 75 | 1023.8 |
| 20260901120604 | 77 | 0 | 0.0 | 0.0 | 0.00 | 0.00 | 0.00 | 74 | 1023.7 |
| 20260901120103 | 76 | 0 | 0.0 | 0.0 | 0.00 | 0.00 | 0.00 | 74 | 1023.7 |
| 20260901115605 | 76 | 0 | 0.0 | 0.0 | 0.00 | 0.00 | 0.00 | 74 | 1023.6 |
| 20260901115106 | 76 | 0 | 0.0 | 0.0 | 0.00 | 0.00 | 0.00 | 74 | 1023.6 |
| 20260901114603 | 76 | 0 | 0.0 | 0.0 | 0.00 | 0.00 | 0.00 | 74 | 1023.5 |
| 20260901114103 | 76 | 0 | 0.0 | 0.0 | 0.00 | 0.00 | 0.00 | 75 | 1023.5 |
| 20260901113603 | 76 | 0 | 0.0 | 0.0 | 0.00 | 0.00 | 0.00 | 76 | 1023.4 |